Location: Wellington
(41.3000°S, 174.7830°E)
Time: 02:30:50
(UTC+13:00)

Cosmos 1633 - Pass Details

Date: 24 January 2019
Orbit: 464 x 484 km, 82.5° (Epoch: 13 October)

Event Time Altitude Azimuth Distance (km) Brightness Sun altitude
Rises 23:01:03 0° 195° (SSW) 2,547 7.4 -20.0°
Reaches altitude 10° 23:03:13 10° 201° (SSW) 1,662 6.3 -20.2°
Maximum altitude 23:06:41 44° 273° (W) 672 3.4 -20.6°
Enters shadow 23:07:36 36° 314° (NW) 781 3.5 -20.7°
